Date String (YYYY-MM-DD hh:mm:ss) UTC,Instrument flags,Ambient pressure (hPa),Sample flow (lpm),Bypass flow (lpm),Sample temperature (°C),Ambient temperature (°C),ASC tube jacket temperature (°C),LED temperature (°C),Box temperature (°C),Sample RH (%),Span deviation,Mass concentration (μg/m³),Mass concentration (μg/m³),Mass concentration (μg/m³)
DateTimeUTC,F1_M11,P_M11,Q1_M11,Q2_M11,T1_M11,T2_M11,T3_M11,T4_M11,T5_M11,U1_M11,ZSPAN_M11,X2_M11,X0_M11,X1_M11
2023-01-23 01:00:00,,0820.6,5.00,0.00,25.6,23.9,00.0,34.5,27.3,08.6,0000.0,0005.67,0009.48,0005.18
2023-01-23 01:01:00,,0820.6,5.01,0.00,25.6,23.9,00.0,34.4,27.3,08.6,0000.0,0005.67,0009.54,0005.17
2023-01-23 01:02:00,,0820.7,5.01,0.00,25.6,23.9,00.0,34.4,27.3,08.6,0000.0,0005.71,0009.97,0005.18
2023-01-23 01:03:00,,0820.6,5.02,0.00,25.5,23.8,00.0,34.4,27.3,08.6,0000.0,0005.74,0010.41,0005.19
2023-01-23 01:04:00,,0820.6,5.01,0.00,25.5,23.8,00.0,34.4,27.3,08.6,0000.0,0005.75,0010.53,0005.21
2023-01-23 01:05:00,,0820.6,5.00,0.00,25.5,23.8,00.0,34.4,27.3,08.7,0000.0,0005.78,0010.89,0005.24
2023-01-23 01:06:00,,0820.6,4.99,0.00,25.5,23.7,00.0,34.4,27.3,08.7,-000.1,0005.92,0012.04,0005.30
2023-01-23 01:07:00,,0820.6,5.00,0.00,25.5,23.7,00.0,34.3,27.2,08.7,0000.0,0006.01,0012.94,0005.35
2023-01-23 01:08:00,,0820.6,4.98,0.00,25.5,23.7,00.0,34.3,27.2,08.7,0000.5,0006.13,0013.90,0005.40
2023-01-23 01:09:00,,0820.6,5.01,0.00,25.5,23.6,00.0,34.3,27.2,08.8,0001.3,0006.24,0015.79,0005.44
2023-01-23 01:10:00,,0820.6,5.01,0.00,25.4,23.6,00.0,34.3,27.2,08.8,0002.0,0006.30,0016.63,0005.50
2023-01-23 01:11:00,,0820.6,5.02,0.00,25.4,23.6,00.0,34.3,27.2,08.8,0001.6,0006.40,0017.82,0005.55
2023-01-23 01:12:00,,0820.6,4.99,0.00,25.4,23.6,00.0,34.3,27.2,08.8,0000.3,0006.55,0019.54,0005.61
2023-01-23 01:13:00,,0820.6,5.00,0.00,25.4,23.6,00.0,34.3,27.2,08.8,0000.8,0006.74,0022.89,0005.67
2023-01-23 01:14:00,,0820.6,5.02,0.00,25.4,23.6,00.0,34.2,27.2,08.9,0000.8,0006.90,0024.25,0005.74
2023-01-23 01:15:00,,0820.6,5.01,0.00,25.4,23.6,00.0,34.2,27.2,08.9,0000.9,0007.00,0026.87,0005.81
2023-01-23 01:16:00,,0820.7,5.00,0.00,25.4,23.6,00.0,34.2,27.2,08.9,0001.0,0007.09,0027.80,0005.88
2023-01-23 01:17:00,,0820.7,5.02,0.00,25.4,23.6,00.0,34.2,27.1,08.9,-000.0,0007.15,0028.24,0005.96
2023-01-23 01:18:00,,0820.7,4.96,0.00,25.4,23.6,00.0,34.2,27.1,08.9,0000.4,0007.21,0027.92,0006.04
2023-01-23 01:19:00,,0820.7,5.00,0.00,25.3,23.5,00.0,34.2,27.1,08.9,0000.3,0007.21,0027.88,0006.09
2023-01-23 01:20:00,,0820.7,4.97,0.00,25.3,23.5,00.0,34.2,27.1,08.9,0000.0,0007.24,0026.35,0006.15
2023-01-23 01:21:00,,0820.7,5.05,0.00,25.3,23.5,00.0,34.1,27.1,08.9,-000.0,0007.31,0025.85,0006.21
2023-01-23 01:22:00,,0820.7,4.98,0.00,25.3,23.5,00.0,34.1,27.1,08.9,-000.0,0007.31,0024.59,0006.27
2023-01-23 01:23:00,,0820.7,5.01,0.00,25.3,23.5,00.0,34.1,27.1,08.9,0000.0,0007.27,0023.52,0006.32
2023-01-23 01:24:00,,0820.7,5.00,0.00,25.3,23.4,00.0,34.1,27.0,08.9,-000.1,0007.21,0019.91,0006.36
2023-01-23 01:25:00,,0820.7,4.99,0.00,25.3,23.5,00.0,34.1,27.0,08.9,-000.5,0007.15,0018.46,0006.39
2023-01-23 01:26:00,,0820.8,5.00,0.00,25.2,23.5,00.0,34.1,27.0,08.9,-000.7,0007.17,0016.24,0006.42
2023-01-23 01:27:00,,0820.8,5.01,0.00,25.2,23.5,00.0,34.1,27.0,09.0,-000.5,0007.22,0015.21,0006.46
2023-01-23 01:28:00,,0820.9,5.01,0.00,25.2,23.5,00.0,34.1,27.0,09.0,-000.1,0007.20,0014.06,0006.48
2023-01-23 01:29:00,,0820.9,5.01,0.00,25.2,23.4,00.0,34.1,27.0,09.0,0000.0,0007.20,0013.59,0006.50
2023-01-23 01:30:00,,0820.9,4.98,0.00,25.2,23.4,00.0,34.0,27.0,09.0,0000.0,0007.24,0013.21,0006.54
2023-01-23 01:31:00,,0820.9,5.02,0.00,25.2,23.4,00.0,34.0,27.0,09.0,0000.0,0007.26,0013.58,0006.58
2023-01-23 01:32:00,,0820.9,4.99,0.00,25.2,23.4,00.0,34.0,26.9,09.0,0000.1,0007.26,0013.91,0006.60
2023-01-23 01:33:00,,0820.9,5.00,0.00,25.1,23.4,00.0,34.0,26.9,09.0,0000.0,0007.34,0014.29,0006.62
2023-01-23 01:34:00,,0820.9,5.00,0.00,25.1,23.4,00.0,34.0,26.9,09.0,0000.0,0007.41,0015.01,0006.62
2023-01-23 01:35:00,,0820.9,5.01,0.00,25.1,23.4,00.0,34.0,26.9,09.0,0000.0,0007.45,0015.82,0006.65
2023-01-23 01:36:00,,0821.0,5.02,0.00,25.1,23.4,00.0,33.9,26.9,09.0,0000.0,0007.52,0016.27,0006.66
2023-01-23 01:37:00,,0821.0,4.99,0.00,25.1,23.3,00.0,33.9,26.9,09.1,0000.0,0007.58,0016.43,0006.67
2023-01-23 01:38:00,,0821.0,5.00,0.00,25.1,23.4,00.0,33.9,26.9,09.1,0000.0,0007.59,0016.56,0006.67
2023-01-23 01:39:00,,0821.0,5.00,0.00,25.1,23.3,00.0,33.9,26.8,09.1,0000.0,0007.67,0017.19,0006.66
2023-01-23 01:40:00,,0821.0,4.99,0.00,25.1,23.3,00.0,33.9,26.8,09.1,0000.1,0007.72,0019.04,0006.65
2023-01-23 01:41:00,,0821.0,5.02,0.00,25.0,23.3,00.0,33.9,26.8,09.1,0000.2,0007.77,0019.31,0006.65
2023-01-23 01:42:00,,0821.0,5.01,0.00,25.0,23.4,00.0,33.9,26.8,09.1,0000.0,0007.83,0019.96,0006.63
2023-01-23 01:43:00,,0821.1,5.02,0.00,25.0,23.3,00.0,33.9,26.8,09.1,0000.0,0007.91,0020.56,0006.63
2023-01-23 01:44:00,,0821.1,5.03,0.00,25.0,23.3,00.0,33.8,26.7,09.2,0001.5,0007.86,0021.21,0006.61
2023-01-23 01:45:00,,0821.1,4.99,0.00,25.0,23.4,00.0,33.8,26.8,09.2,0003.5,0007.86,0020.84,0006.60
2023-01-23 01:46:00,,0821.1,5.01,0.00,25.0,23.4,00.0,33.8,26.7,09.2,0003.2,0007.86,0019.93,0006.60
2023-01-23 01:47:00,,0821.2,5.00,0.00,25.0,23.3,00.0,33.8,26.7,09.2,0000.0,0007.80,0019.56,0006.61
2023-01-23 01:48:00,,0821.2,5.00,0.00,25.0,23.3,00.0,33.8,26.7,09.2,0000.0,0007.76,0019.62,0006.60
2023-01-23 01:49:00,,0821.1,5.01,0.00,25.0,23.3,00.0,33.8,26.8,09.1,0001.3,0007.73,0019.00,0006.59
2023-01-23 01:50:00,,0821.1,5.01,0.00,25.0,23.2,00.0,33.8,26.8,09.1,0001.5,0007.64,0018.67,0006.60
2023-01-23 01:51:00,,0821.1,4.98,0.00,24.9,23.2,00.0,33.8,26.7,09.2,0000.0,0007.60,0017.33,0006.60
2023-01-23 01:52:00,,0821.1,5.00,0.00,24.9,23.2,00.0,33.8,26.7,09.2,0000.0,0007.59,0016.85,0006.62
2023-01-23 01:53:00,,0821.1,4.99,0.00,24.9,23.2,00.0,33.7,26.7,09.2,0000.0,0007.56,0015.96,0006.66
2023-01-23 01:54:00,,0821.1,4.98,0.00,24.9,23.2,00.0,33.7,26.7,09.2,0000.0,0007.49,0015.02,0006.68
2023-01-23 01:55:00,,0821.2,5.00,0.00,24.9,23.2,00.0,33.7,26.7,09.2,0000.0,0007.48,0014.60,0006.71
2023-01-23 01:56:00,,0821.1,5.00,0.00,24.9,23.1,00.0,33.7,26.7,09.2,0000.0,0007.47,0015.16,0006.75
2023-01-23 01:57:00,,0821.1,5.00,0.00,24.9,23.1,00.0,33.7,26.7,09.2,0000.0,0007.47,0015.13,0006.78
2023-01-23 01:58:00,,0821.1,5.00,0.00,24.9,23.1,00.0,33.7,26.7,09.3,0000.0,0007.52,0015.58,0006.81
2023-01-23 01:59:00,,0821.1,4.99,0.00,24.9,23.1,00.0,33.7,26.7,09.3,0000.0,0007.54,0015.81,0006.84
